Time,TemperatureF,DewpointF,PressureIn,WindDirection,WindDirectionDegrees,WindSpeedMPH,WindSpeedGustMPH,Humidity,HourlyPrecipIn,Conditions,Clouds,dailyrainin,SoftwareType,DateUTC
2013-11-29 00:10:00,20.0,14.0,30.53,NE,55,2.0,7.0,77,0.00,,,0.00,weatherlink.com 1.10,2013-11-29 05:10:00,
2013-11-29 00:25:00,19.4,14.0,30.53,East,88,0.0,3.0,79,0.00,,,0.00,weatherlink.com 1.10,2013-11-29 05:25:00,
2013-11-29 00:40:00,20.3,15.0,30.53,ENE,60,5.0,9.0,79,0.00,,,0.00,weatherlink.com 1.10,2013-11-29 05:40:00,
2013-11-29 00:55:00,21.1,15.0,30.53,NE,53,6.0,8.0,78,0.00,,,0.00,weatherlink.com 1.10,2013-11-29 05:55:00,
2013-11-29 01:10:00,21.2,16.0,30.53,ENE,58,8.0,9.0,79,0.00,,,0.00,weatherlink.com 1.10,2013-11-29 06:10:00,
2013-11-29 01:25:00,21.2,15.0,30.54,NE,56,4.0,8.0,78,0.00,,,0.00,weatherlink.com 1.10,2013-11-29 06:25:00,
2013-11-29 01:40:00,21.3,15.0,30.54,ENE,61,4.0,8.0,78,0.00,,,0.00,weatherlink.com 1.10,2013-11-29 06:40:00,
2013-11-29 01:55:00,21.3,16.0,30.55,NNE,17,6.0,6.0,79,0.00,,,0.00,weatherlink.com 1.10,2013-11-29 06:55:00,
2013-11-29 02:10:00,21.4,16.0,30.55,ESE,103,3.0,9.0,79,0.00,,,0.00,weatherlink.com 1.10,2013-11-29 07:10:00,
2013-11-29 02:25:00,20.4,16.0,30.56,SE,142,2.0,3.0,82,0.00,,,0.00,weatherlink.com 1.10,2013-11-29 07:25:00,
2013-11-29 02:40:00,20.1,16.0,30.56,South,183,3.0,3.0,84,0.00,,,0.00,weatherlink.com 1.10,2013-11-29 07:40:00,
2013-11-29 02:55:00,19.8,16.0,30.57,South,173,0.0,2.0,85,0.00,,,0.00,weatherlink.com 1.10,2013-11-29 07:55:00,
2013-11-29 03:10:00,19.7,16.0,30.57,SSE,161,2.0,3.0,86,0.00,,,0.00,weatherlink.com 1.10,2013-11-29 08:10:00,
2013-11-29 03:25:00,19.4,16.0,30.58,South,184,1.0,4.0,86,0.00,,,0.00,weatherlink.com 1.10,2013-11-29 08:25:00,
2013-11-29 03:40:00,19.2,16.0,30.58,South,174,2.0,4.0,86,0.00,,,0.00,weatherlink.com 1.10,2013-11-29 08:40:00,
2013-11-29 03:55:00,18.8,16.0,30.58,SSE,162,0.0,5.0,87,0.00,,,0.00,weatherlink.com 1.10,2013-11-29 08:55:00,
2013-11-29 04:10:00,18.1,15.0,30.58,SSE,165,1.0,3.0,87,0.00,,,0.00,weatherlink.com 1.10,2013-11-29 09:10:00,
2013-11-29 04:25:00,17.2,14.0,30.59,SSE,165,0.0,1.0,88,0.00,,,0.00,weatherlink.com 1.10,2013-11-29 09:25:00,
2013-11-29 04:40:00,17.0,14.0,30.59,SSE,165,1.0,4.0,89,0.00,,,0.00,weatherlink.com 1.10,2013-11-29 09:40:00,
2013-11-29 04:56:00,17.0,14.0,30.59,SSE,165,1.0,2.0,88,0.00,,,0.00,weatherlink.com 1.10,2013-11-29 09:56:00,
2013-11-29 05:11:00,16.9,14.0,30.60,SE,146,1.0,4.0,88,0.00,,,0.00,weatherlink.com 1.10,2013-11-29 10:11:00,
2013-11-29 05:26:00,16.9,14.0,30.61,SSE,165,1.0,4.0,88,0.00,,,0.00,weatherlink.com 1.10,2013-11-29 10:26:00,
2013-11-29 05:41:00,16.7,14.0,30.61,SE,145,4.0,4.0,88,0.00,,,0.00,weatherlink.com 1.10,2013-11-29 10:41:00,
2013-11-29 05:56:00,16.7,14.0,30.61,SSE,150,2.0,4.0,88,0.00,,,0.00,weatherlink.com 1.10,2013-11-29 10:56:00,
2013-11-29 06:11:00,16.5,13.0,30.62,SSE,156,2.0,3.0,87,0.00,,,0.00,weatherlink.com 1.10,2013-11-29 11:11:00,
2013-11-29 06:26:00,16.2,13.0,30.62,SSE,157,3.0,4.0,87,0.00,,,0.00,weatherlink.com 1.10,2013-11-29 11:26:00,
2013-11-29 06:41:00,16.2,13.0,30.63,SSE,157,2.0,4.0,87,0.00,,,0.00,weatherlink.com 1.10,2013-11-29 11:41:00,
2013-11-29 06:56:00,15.8,13.0,30.63,SSE,167,1.0,3.0,87,0.00,,,0.00,weatherlink.com 1.10,2013-11-29 11:56:00,
2013-11-29 07:11:00,15.3,12.0,30.64,SSE,154,3.0,3.0,88,0.00,,,0.00,weatherlink.com 1.10,2013-11-29 12:11:00,
2013-11-29 07:26:00,16.0,13.0,30.64,SSE,168,1.0,4.0,87,0.00,,,0.00,weatherlink.com 1.10,2013-11-29 12:26:00,
2013-11-29 07:41:00,15.3,12.0,30.65,South,178,1.0,2.0,87,0.00,,,0.00,weatherlink.com 1.10,2013-11-29 12:41:00,
2013-11-29 07:56:00,15.6,13.0,30.65,SSE,164,1.0,3.0,88,0.00,,,0.00,weatherlink.com 1.10,2013-11-29 12:56:00,
2013-11-29 08:11:00,15.3,12.0,30.66,SSE,161,1.0,2.0,88,0.00,,,0.00,weatherlink.com 1.10,2013-11-29 13:11:00,
2013-11-29 08:26:00,15.9,13.0,30.66,South,169,0.0,3.0,88,0.00,,,0.00,weatherlink.com 1.10,2013-11-29 13:26:00,
2013-11-29 08:41:00,15.6,13.0,30.67,South,169,1.0,1.0,88,0.00,,,0.00,weatherlink.com 1.10,2013-11-29 13:41:00,
2013-11-29 08:56:00,16.1,13.0,30.68,South,169,2.0,2.0,88,0.00,,,0.00,weatherlink.com 1.10,2013-11-29 13:56:00,
2013-11-29 09:11:00,17.1,14.0,30.68,South,169,1.0,1.0,89,0.00,,,0.00,weatherlink.com 1.10,2013-11-29 14:11:00,
2013-11-29 09:26:00,18.8,16.0,30.69,SSE,161,2.0,3.0,89,0.00,,,0.00,weatherlink.com 1.10,2013-11-29 14:26:00,
2013-11-29 09:41:00,20.2,17.0,30.69,SE,146,1.0,4.0,87,0.00,,,0.00,weatherlink.com 1.10,2013-11-29 14:41:00,
2013-11-29 09:56:00,21.2,18.0,30.69,SSE,147,1.0,2.0,86,0.00,,,0.00,weatherlink.com 1.10,2013-11-29 14:56:00,
2013-11-29 10:26:00,23.1,18.0,30.70,ESE,105,4.0,8.0,80,0.00,,,0.00,weatherlink.com 1.10,2013-11-29 15:26:00,
2013-11-29 10:41:00,23.5,18.0,30.69,East,88,6.0,9.0,78,0.00,,,0.00,weatherlink.com 1.10,2013-11-29 15:41:00,
2013-11-29 10:56:00,23.8,18.0,30.70,ESE,105,5.0,8.0,78,0.00,,,0.00,weatherlink.com 1.10,2013-11-29 15:56:00,
2013-11-29 11:11:00,23.8,18.0,30.69,ESE,107,5.0,9.0,78,0.00,,,0.00,weatherlink.com 1.10,2013-11-29 16:11:00,
2013-11-29 11:26:00,24.3,18.0,30.69,East,89,6.0,8.0,78,0.00,,,0.00,weatherlink.com 1.10,2013-11-29 16:26:00,
2013-11-29 11:41:00,24.9,19.0,30.69,East,101,5.0,7.0,77,0.00,,,0.00,weatherlink.com 1.10,2013-11-29 16:41:00,
2013-11-29 11:56:00,25.1,19.0,30.69,ESE,118,8.0,10.0,78,0.00,,,0.00,weatherlink.com 1.10,2013-11-29 16:56:00,
2013-11-29 12:11:00,25.4,19.0,30.69,ESE,111,3.0,10.0,78,0.00,,,0.00,weatherlink.com 1.10,2013-11-29 17:11:00,
2013-11-29 12:27:00,25.4,19.0,30.68,SE,131,3.0,8.0,78,0.00,,,0.00,weatherlink.com 1.10,2013-11-29 17:27:00,
2013-11-29 12:42:00,26.1,20.0,30.68,SSE,155,4.0,10.0,78,0.00,,,0.00,weatherlink.com 1.10,2013-11-29 17:42:00,
2013-11-29 12:57:00,25.8,20.0,30.68,SE,142,3.0,10.0,80,0.00,,,0.00,weatherlink.com 1.10,2013-11-29 17:57:00,
2013-11-29 13:12:00,25.8,21.0,30.68,East,92,5.0,10.0,82,0.00,,,0.00,weatherlink.com 1.10,2013-11-29 18:12:00,
2013-11-29 13:27:00,26.1,21.0,30.68,SE,136,6.0,10.0,81,0.00,,,0.00,weatherlink.com 1.10,2013-11-29 18:27:00,
2013-11-29 13:42:00,26.4,22.0,30.67,East,98,7.0,8.0,82,0.00,,,0.00,weatherlink.com 1.10,2013-11-29 18:42:00,
2013-11-29 13:57:00,26.8,22.0,30.67,ESE,115,2.0,8.0,83,0.00,,,0.00,weatherlink.com 1.10,2013-11-29 18:57:00,
2013-11-29 14:12:00,26.8,23.0,30.67,SE,128,2.0,7.0,86,0.00,,,0.00,weatherlink.com 1.10,2013-11-29 19:12:00,
2013-11-29 14:27:00,27.0,23.0,30.66,East,85,3.0,7.0,86,0.00,,,0.00,weatherlink.com 1.10,2013-11-29 19:27:00,
2013-11-29 14:42:00,27.4,24.0,30.66,East,86,5.0,5.0,86,0.00,,,0.00,weatherlink.com 1.10,2013-11-29 19:42:00,
2013-11-29 14:57:00,27.9,23.0,30.65,ESE,117,3.0,5.0,83,0.00,,,0.00,weatherlink.com 1.10,2013-11-29 19:57:00,
2013-11-29 15:12:00,28.3,24.0,30.65,East,82,3.0,5.0,83,0.00,,,0.00,weatherlink.com 1.10,2013-11-29 20:12:00,
2013-11-29 15:27:00,28.6,24.0,30.65,SE,127,4.0,11.0,82,0.00,,,0.00,weatherlink.com 1.10,2013-11-29 20:27:00,
2013-11-29 15:42:00,28.7,23.0,30.65,SE,128,6.0,9.0,80,0.00,,,0.00,weatherlink.com 1.10,2013-11-29 20:42:00,
2013-11-29 15:57:00,28.6,23.0,30.65,SE,134,6.0,8.0,79,0.00,,,0.00,weatherlink.com 1.10,2013-11-29 20:57:00,
2013-11-29 16:12:00,28.3,24.0,30.65,SE,130,3.0,6.0,82,0.00,,,0.00,weatherlink.com 1.10,2013-11-29 21:12:00,
2013-11-29 16:27:00,28.1,24.0,30.64,ESE,119,3.0,5.0,83,0.00,,,0.00,weatherlink.com 1.10,2013-11-29 21:27:00,
2013-11-29 16:42:00,28.0,24.0,30.64,ESE,115,2.0,7.0,84,0.00,,,0.00,weatherlink.com 1.10,2013-11-29 21:42:00,
2013-11-29 16:57:00,27.9,24.0,30.64,ESE,117,2.0,6.0,85,0.00,,,0.00,weatherlink.com 1.10,2013-11-29 21:57:00,
2013-11-29 17:12:00,27.9,23.0,30.64,SE,139,3.0,6.0,83,0.00,,,0.00,weatherlink.com 1.10,2013-11-29 22:12:00,
2013-11-29 17:27:00,28.4,23.0,30.64,SE,134,2.0,7.0,81,0.00,,,0.00,weatherlink.com 1.10,2013-11-29 22:27:00,
2013-11-29 17:42:00,28.8,24.0,30.64,SSE,147,4.0,12.0,81,0.00,,,0.00,weatherlink.com 1.10,2013-11-29 22:42:00,
2013-11-29 17:57:00,28.9,24.0,30.64,SE,132,5.0,11.0,82,0.00,,,0.00,weatherlink.com 1.10,2013-11-29 22:57:00,
2013-11-29 18:12:00,28.9,24.0,30.64,SSE,150,2.0,9.0,83,0.00,,,0.00,weatherlink.com 1.10,2013-11-29 23:12:00,
2013-11-29 18:27:00,28.8,24.0,30.64,SE,141,3.0,9.0,81,0.00,,,0.00,weatherlink.com 1.10,2013-11-29 23:27:00,
2013-11-29 18:42:00,28.5,23.0,30.63,SE,141,2.0,7.0,79,0.00,,,0.00,weatherlink.com 1.10,2013-11-29 23:42:00,
2013-11-29 18:57:00,28.1,22.0,30.62,SE,136,2.0,4.0,79,0.00,,,0.00,weatherlink.com 1.10,2013-11-29 23:57:00,
2013-11-29 19:12:00,27.4,22.0,30.62,SE,132,2.0,4.0,81,0.00,,,0.00,weatherlink.com 1.10,2013-11-30 00:12:00,
2013-11-29 19:27:00,27.2,22.0,30.62,SE,132,1.0,2.0,80,0.00,,,0.00,weatherlink.com 1.10,2013-11-30 00:27:00,
2013-11-29 19:42:00,26.9,22.0,30.62,ESE,120,3.0,3.0,82,0.00,,,0.00,weatherlink.com 1.10,2013-11-30 00:42:00,
2013-11-29 19:57:00,26.8,23.0,30.61,ESE,119,0.0,3.0,86,0.00,,,0.00,weatherlink.com 1.10,2013-11-30 00:57:00,
2013-11-29 20:12:00,27.3,23.0,30.61,SSE,153,1.0,5.0,82,0.00,,,0.00,weatherlink.com 1.10,2013-11-30 01:12:00,
2013-11-29 20:27:00,28.5,22.0,30.60,SSE,148,3.0,4.0,78,0.00,,,0.00,weatherlink.com 1.10,2013-11-30 01:27:00,
2013-11-29 20:42:00,28.9,22.0,30.60,SSE,151,3.0,5.0,76,0.00,,,0.00,weatherlink.com 1.10,2013-11-30 01:42:00,
2013-11-29 20:57:00,29.6,23.0,30.59,South,171,2.0,4.0,75,0.00,,,0.00,weatherlink.com 1.10,2013-11-30 01:57:00,
2013-11-29 21:12:00,29.7,22.0,30.59,SSE,155,1.0,5.0,73,0.00,,,0.00,weatherlink.com 1.10,2013-11-30 02:12:00,
2013-11-29 21:27:00,30.0,22.0,30.58,SSE,165,2.0,6.0,73,0.00,,,0.00,weatherlink.com 1.10,2013-11-30 02:27:00,
2013-11-29 21:42:00,30.4,22.0,30.58,SSE,150,3.0,5.0,72,0.00,,,0.00,weatherlink.com 1.10,2013-11-30 02:42:00,
2013-11-29 21:57:00,30.6,22.0,30.58,South,191,3.0,12.0,70,0.00,,,0.00,weatherlink.com 1.10,2013-11-30 02:57:00,
2013-11-29 22:12:00,30.6,22.0,30.58,SSW,200,6.0,8.0,71,0.00,,,0.00,weatherlink.com 1.10,2013-11-30 03:12:00,
2013-11-29 22:28:00,30.7,24.0,30.58,SSE,154,4.0,11.0,75,0.00,,,0.00,weatherlink.com 1.10,2013-11-30 03:28:00,
2013-11-29 22:43:00,30.5,24.0,30.58,South,182,3.0,7.0,76,0.00,,,0.00,weatherlink.com 1.10,2013-11-30 03:43:00,
2013-11-29 22:58:00,30.4,23.0,30.57,SSE,153,4.0,8.0,73,0.00,,,0.00,weatherlink.com 1.10,2013-11-30 03:58:00,
2013-11-29 23:13:00,30.2,23.0,30.57,SSE,163,2.0,12.0,75,0.00,,,0.00,weatherlink.com 1.10,2013-11-30 04:13:00,
2013-11-29 23:28:00,30.0,23.0,30.56,SE,137,8.0,15.0,76,0.00,,,0.00,weatherlink.com 1.10,2013-11-30 04:28:00,
2013-11-29 23:43:00,29.8,23.0,30.56,SSE,150,6.0,17.0,75,0.00,,,0.00,weatherlink.com 1.10,2013-11-30 04:43:00,
2013-11-29 23:58:00,29.7,21.0,30.55,SSE,150,8.0,15.0,71,0.00,,,0.00,weatherlink.com 1.10,2013-11-30 04:58:00,